Weather History for Shelbyville, IN

Change the Weather History Date:

Friday, February 15, 2013

  Actual Average Record
Temperature  
Mean Temperature 32 °F 31 °F  
Max Temperature 40 °F 40 °F 64 °F (2005)
Min Temperature 24 °F 23 °F 1 °F (2007)
Degree Days  
Heating Degree Days 33 34  
Month to date heating degree days 483 523  
Since 1 July heating degree days 3386 3752  
Cooling Degree Days 0 0  
Month to date cooling degree days 0 0  
Year to date cooling degree days 0 0  
Moisture  
Dew Point 25 °F    
Average Humidity 72    
Maximum Humidity 85    
Minimum Humidity 59    
Precipitation  
Precipitation T in 0.08 in 0.38 in (2003)
Month to date precipitation 0.20 1.29  
Year to date precipitation 4.08 3.68  
Sea Level Pressure  
Sea Level Pressure 30.08 in    
Wind  
Wind Speed 7 mph (WNW)    
Max Wind Speed 23 mph    
Max Gust Speed 29 mph    
Visibility 9 miles    
Events Snow    
T = Trace of Precipitation, MM = Missing Value Source: NWS Daily Summary

Daily Weather History Graph

Daily Weather History Graph

Search for Another Location

Airport:

Trip Planner

Search our weather history database for the weather conditions in past years. The results will help you decide how hot, cold, wet, or windy it might be!

Date:

Astronomy

Feb. 15, 2013 Rise Set
Actual Time 7:35 AM EST 6:20 PM EST
Civil Twilight 7:07 AM EST 6:47 PM EST
Nautical Twilight 6:36 AM EST 7:19 PM EST
Astronomical Twilight 6:04 AM EST 7:50 PM EST
Moon 10:12 AM EST (2/15) No Moon Set
Length of Visible Light 11h 40m
Length of Day
10h 44m
Waxing Crescent, 30% of the Moon is Illuminated
Feb 15
Waxing Crescent
Feb 17
First Quarter
Feb 25
Full
Mar 4
Last Quarter
Mar 11
New

Hourly Weather History & Observations

Time (EST) Temp. Windchill Dew Point Humidity Pressure Visibility Wind Dir Wind Speed Gust Speed Precip Events Conditions
12:53 AM 33.1 °F 30.0 °F 26.1 °F 75% 29.99 in 10.0 mi WSW 3.5 mph - N/A   Clear
1:53 AM 33.1 °F - 26.1 °F 75% 29.98 in 10.0 mi Calm Calm - N/A   Clear
2:53 AM 32.0 °F 28.7 °F 26.1 °F 79% 29.99 in 10.0 mi WNW 3.5 mph - N/A   Scattered Clouds
3:53 AM 30.9 °F 26.2 °F 26.1 °F 82% 30.00 in 10.0 mi SW 4.6 mph - N/A   Clear
4:53 AM 32.0 °F 26.4 °F 26.1 °F 79% 30.00 in 10.0 mi SW 5.8 mph - N/A   Scattered Clouds
5:53 AM 32.0 °F 26.4 °F 27.0 °F 82% 30.01 in 10.0 mi SSW 5.8 mph - N/A   Overcast
6:53 AM 33.1 °F 26.9 °F 26.1 °F 75% 30.03 in 10.0 mi WSW 6.9 mph - N/A   Mostly Cloudy
7:53 AM 33.1 °F 27.7 °F 27.0 °F 78% 30.04 in 10.0 mi WSW 5.8 mph - N/A   Clear
8:53 AM 34.0 °F 28.8 °F 28.0 °F 79% 30.06 in 10.0 mi WSW 5.8 mph - N/A   Scattered Clouds
9:37 AM 35.6 °F 29.2 °F 28.4 °F 75% 30.05 in 10.0 mi West 8.1 mph - N/A   Overcast
9:48 AM 35.6 °F 29.2 °F 28.4 °F 75% 30.06 in 10.0 mi West 8.1 mph - N/A   Overcast
9:53 AM 35.1 °F 27.9 °F 28.9 °F 78% 30.07 in 10.0 mi West 9.2 mph - N/A   Overcast
10:45 AM 37.4 °F 31.4 °F 28.4 °F 70% 30.06 in 9.0 mi WNW 8.1 mph - N/A   Overcast
10:53 AM 37.0 °F 30.4 °F 28.9 °F 73% 30.09 in 9.0 mi West 9.2 mph - N/A   Overcast
11:39 AM 35.6 °F 27.1 °F 28.4 °F 75% 30.07 in 2.0 mi WNW 12.7 mph - 0.00 in Snow Light Snow
11:46 AM 35.6 °F 27.5 °F 28.4 °F 75% 30.07 in 1.2 mi WNW 11.5 mph - 0.00 in Snow Light Snow
11:53 AM 35.1 °F 28.6 °F 30.0 °F 82% 30.09 in 4.0 mi WNW 8.1 mph - 0.00 in Snow Light Snow
12:03 PM 37.4 °F 30.8 °F 30.2 °F 75% 30.07 in 7.0 mi WNW 9.2 mph - 0.00 in   Overcast
12:27 PM 37.4 °F 30.3 °F 28.4 °F 70% 30.06 in 10.0 mi WNW 10.4 mph - 0.00 in   Overcast
12:50 PM 37.4 °F 30.3 °F 26.6 °F 65% 30.06 in 10.0 mi West 10.4 mph - 0.00 in   Overcast
12:53 PM 37.9 °F 30.5 °F 28.0 °F 68% 30.08 in 10.0 mi West 11.5 mph - 0.00 in   Overcast
1:53 PM 36.0 °F 29.0 °F 26.1 °F 67% 30.08 in 9.0 mi WNW 9.2 mph - 0.00 in   Overcast
2:53 PM 37.0 °F 26.4 °F 25.0 °F 62% 30.08 in 10.0 mi NW 20.7 mph 27.6 mph 0.00 in   Mostly Cloudy
3:53 PM 35.1 °F 25.5 °F 24.1 °F 64% 30.10 in 10.0 mi NNW 15.0 mph - N/A   Mostly Cloudy
4:29 PM 33.8 °F 23.5 °F 23.0 °F 65% 30.10 in 10.0 mi NNW 16.1 mph - N/A   Overcast
4:40 PM 33.8 °F 23.5 °F 24.8 °F 70% 30.10 in 10.0 mi NNW 16.1 mph 21.9 mph N/A   Overcast
4:53 PM 34.0 °F 25.5 °F 24.1 °F 67% 30.13 in 10.0 mi NNW 11.5 mph - N/A   Overcast
5:53 PM 32.0 °F 23.6 °F 21.0 °F 64% 30.14 in 10.0 mi NW 10.4 mph - N/A   Scattered Clouds
6:53 PM 32.0 °F 26.4 °F 21.9 °F 66% 30.15 in 10.0 mi NNW 5.8 mph - N/A   Overcast
7:53 PM 28.0 °F 24.2 °F 18.0 °F 66% 30.16 in 10.0 mi NW 3.5 mph - N/A   Clear
8:53 PM 28.9 °F 25.2 °F 19.0 °F 67% 30.17 in 10.0 mi NW 3.5 mph - N/A   Clear
9:53 PM 25.0 °F 20.7 °F 18.0 °F 75% 30.17 in 10.0 mi NW 3.5 mph - N/A   Clear
10:53 PM 26.1 °F 21.9 °F 18.0 °F 71% 30.16 in 10.0 mi WNW 3.5 mph - N/A   Clear
11:53 PM 25.0 °F - 18.0 °F 75% 30.15 in 10.0 mi Calm Calm - N/A   Clear